TIME,�g�[�{�C���[-���� [L],�t���O,�����{�C���[-���� [L],�t���O,�g�[�{�C���[-���� [MJ/h],�t���O,�����{�C���[-���� [MJ/h],�t���O
2004/5/1 0:00,0.031555995,0,0,0,4.63242,0,0,0
2004/5/1 0:15,0.031394959,0,0.020930027,0,4.60878,0,3.072528,0
2004/5/1 0:30,0.031394959,0,0,0,4.60878,0,0,0
2004/5/1 0:45,0.031234005,0,0.020930027,0,4.585152,0,3.072528,0
2004/5/1 1:00,0.03381,0,1.61E-04,0,4.963308,0,0.02364,0
2004/5/1 1:15,0.038478965,0,0,0,5.648712,0,0,0
2004/5/1 1:30,0.038801035,0,0,0,5.695992,0,0,0
2004/5/1 1:45,0.036385995,0,0,0,5.341464,0,0,0
2004/5/1 2:00,0.037673951,0,0,0,5.530536,0,0,0
2004/5/1 2:15,0.034293025,0,0,0,5.034216,0,0,0
2004/5/1 2:30,0.031234005,0,0,0,4.585152,0,0,0
2004/5/1 2:45,0.031234005,0,0,0,4.585152,0,0,0
2004/5/1 3:00,0.031555995,0,0,0,4.63242,0,0,0
2004/5/1 3:15,0.031234005,0,0,0,4.585152,0,0,0
2004/5/1 3:30,0.031395041,0,0,0,4.608792,0,0,0
2004/5/1 3:45,0.031395041,0,0,0,4.608792,0,0,0
2004/5/1 4:00,0.031555995,0,0,0,4.63242,0,0,0
2004/5/1 4:15,0.031555995,0,0,0,4.63242,0,0,0
2004/5/1 4:30,0.031395041,0,0,0,4.608792,0,0,0
2004/5/1 4:45,0.031716948,0,0,0,4.656048,0,0,0
2004/5/1 5:00,0.031395041,0,0,0,4.608792,0,0,0
2004/5/1 5:15,0.031556076,0,0,0,4.632432,0,0,0
2004/5/1 5:30,0.031556076,0,0,0,4.632432,0,0,0
2004/5/1 5:45,0.03445406,0,0,0,5.057856,0,0,0
2004/5/1 6:00,0.037352044,0,0,0,5.48328,0,0,0
2004/5/1 6:15,0.037512997,0,0,0,5.506908,0,0,0
2004/5/1 6:30,0.037674033,0,0,0,5.530548,0,0,0
2004/5/1 6:45,0.038157057,0,0,0,5.601456,0,0,0
2004/5/1 7:00,0.034615014,0,0,0,5.081484,0,0,0
2004/5/1 7:15,0.031234005,0,0.038961989,0,4.585152,0,5.71962,0
2004/5/1 7:30,0.031234005,0,0.00966,0,4.585152,0,1.418088,0
2004/5/1 7:45,0.03107297,0,0.00966,0,4.561512,0,1.418088,0
2004/5/1 8:00,0.03107297,0,0,0,4.561512,0,0,0
2004/5/1 8:15,0.030912016,0,0,0,4.537884,0,0,0
2004/5/1 8:30,0.030912016,0,0,0,4.537884,0,0,0
2004/5/1 8:45,0.030750981,0,0,0,4.514244,0,0,0
2004/5/1 9:00,0.031555995,0,0,0,4.63242,0,0,0
2004/5/1 9:15,0.031555995,0,0.053291035,0,4.63242,0,7.823124,0
2004/5/1 9:30,0.031555995,0,0,0,4.63242,0,0,0
2004/5/1 9:45,0.031234005,0,0.016100027,0,4.585152,0,2.363484,0
2004/5/1 10:00,0.031234005,0,0,0,4.585152,0,0,0
2004/5/1 10:15,0.031395041,0,0,0,4.608792,0,0,0
2004/5/1 10:30,0.03799594,0,0.005635014,0,5.577804,0,0.82722,0
2004/5/1 10:45,0.038156975,0,0.107065014,0,5.601444,0,15.717144,0
2004/5/1 11:00,0.037191008,0,0.247618038,0,5.45964,0,36.350328,0
2004/5/1 11:15,0.036707984,0,0,0,5.388732,0,0,0
2004/5/1 11:30,0.037029973,0,0,0,5.436,0,0,0
2004/5/1 11:45,0.030912016,0,0,0,4.537884,0,0,0
2004/5/1 12:00,0.030912016,0,0,0,4.537884,0,0,0
2004/5/1 12:15,0.03107297,0,0,0,4.561512,0,0,0
2004/5/1 12:30,0.031073052,0,0,0,4.561524,0,0,0
2004/5/1 12:45,0.030911935,0,0.377383978,0,4.537872,0,55.399968,0
2004/5/1 13:00,0.030751063,0,0.296723052,0,4.514256,0,43.558944,0
2004/5/1 13:15,0.030590027,0,0,0,4.490616,0,0,0
2004/5/1 13:30,0.030589946,0,0,0,4.490604,0,0,0
2004/5/1 13:45,0.030268038,0,0,0,4.443348,0,0,0
2004/5/1 14:00,0.030428992,0,0,0,4.466976,0,0,0
2004/5/1 14:15,0.030912016,0,0,0,4.537884,0,0,0
2004/5/1 14:30,0.030428992,0,0,0,4.466976,0,0,0
2004/5/1 14:45,0.030590027,0,0,0,4.490616,0,0,0
2004/5/1 15:00,0.030590027,0,0,0,4.490616,0,0,0
2004/5/1 15:15,0.030912016,0,0,0,4.537884,0,0,0
2004/5/1 15:30,0.030590027,0,0,0,4.490616,0,0,0
2004/5/1 15:45,0.030911935,0,0,0,4.537872,0,0,0
2004/5/1 16:00,0.030912016,0,0,0,4.537884,0,0,0
2004/5/1 16:15,0.030750981,0,0,0,4.514244,0,0,0
2004/5/1 16:30,0.030912016,0,0,0,4.537884,0,0,0
2004/5/1 16:45,0.033004986,0,0,0,4.845132,0,0,0
2004/5/1 17:00,0.035742016,0,0,0,5.246928,0,0,0
2004/5/1 17:15,0.035742016,0,0,0,5.246928,0,0,0
2004/5/1 17:30,0.036225041,0,0,0,5.317836,0,0,0
2004/5/1 17:45,0.035742016,0,0.01722703,0,5.246928,0,2.528928,0
2004/5/1 18:00,0.03590297,0,0,0,5.270556,0,0,0
2004/5/1 18:15,0.034292943,0,0,0,5.034204,0,0,0
2004/5/1 18:30,0.030912016,0,0,0,4.537884,0,0,0
2004/5/1 18:45,0.030590027,0,0.005796049,0,4.490616,0,0.85086,0
2004/5/1 19:00,0.030750981,0,0,0,4.514244,0,0,0
2004/5/1 19:15,0.030912016,0,0,0,4.537884,0,0,0
2004/5/1 19:30,0.030912016,0,0.189497003,0,4.537884,0,27.81816,0
2004/5/1 19:45,0.030912016,0,0.007405995,0,4.537884,0,1.0872,0
2004/5/1 20:00,0.03107297,0,0.018354033,0,4.561512,0,2.694372,0
2004/5/1 20:15,0.031234005,0,0,0,4.585152,0,0,0
2004/5/1 20:30,0.03107297,0,0.106421035,0,4.561512,0,15.622608,0
2004/5/1 20:45,0.031234005,0,0.072611035,0,4.585152,0,10.6593,0
2004/5/1 21:00,0.031555995,0,0.006761935,0,4.63242,0,0.992652,0
2004/5/1 21:15,0.031395041,0,0,0,4.608792,0,0,0
2004/5/1 21:30,0.033649046,0,0,0,4.93968,0,0,0
2004/5/1 21:45,0.039123025,0,0,0,5.74326,0,0,0
2004/5/1 22:00,0.04073297,0,0,0,5.9796,0,0,0
2004/5/1 22:15,0.040894005,0,0,0,6.00324,0,0,0
2004/5/1 22:30,0.036224959,0,0,0,5.317824,0,0,0
2004/5/1 22:45,0.031878065,0,0.013684986,0,4.6797,0,2.008956,0
2004/5/1 23:00,0.031555995,0,0.000643978,0,4.63242,0,0.094536,0
2004/5/1 23:15,0.03171703,0,0,0,4.65606,0,0,0
2004/5/1 23:30,0.03171703,0,0.043953025,0,4.65606,0,6.452304,0
2004/5/1 23:45,0.031877984,0,0.035420027,0,4.679688,0,5.19966,0
2004/5/2 0:00,0.03171703,0,0,0,4.65606,0,0,0
2004/5/2 0:15,0.031395041,0,0,0,4.608792,0,0,0
2004/5/2 0:30,0.03171703,0,0,0,4.65606,0,0,0
2004/5/2 0:45,0.035903052,0,0,0,5.270568,0,0,0
2004/5/2 1:00,0.041376948,0,0,0,6.074136,0,0,0
2004/5/2 1:15,0.041699019,0,0,0,6.121416,0,0,0
2004/5/2 1:30,0.040088992,0,0,0,5.885064,0,0,0
2004/5/2 1:45,0.032039019,0,0,0,4.703328,0,0,0
2004/5/2 2:00,0.031878065,0,0,0,4.6797,0,0,0
2004/5/2 2:15,0.031877984,0,0,0,4.679688,0,0,0
2004/5/2 2:30,0.032039019,0,0.015778038,0,4.703328,0,2.316216,0
2004/5/2 2:45,0.031877984,0,0,0,4.679688,0,0,0
2004/5/2 3:00,0.031877984,0,0,0,4.679688,0,0,0
2004/5/2 3:15,0.031877984,0,0,0,4.679688,0,0,0
2004/5/2 3:30,0.032039019,0,0,0,4.703328,0,0,0
2004/5/2 3:45,0.042504033,0,0,0,6.239592,0,0,0
2004/5/2 4:00,0.043309046,0,0,0,6.357768,0,0,0
2004/5/2 4:15,0.042342997,0,0,0,6.215952,0,0,0
2004/5/2 4:30,0.032039019,0,0,0,4.703328,0,0,0
2004/5/2 4:45,0.032039019,0,0,0,4.703328,0,0,0
2004/5/2 5:00,0.032361008,0,0,0,4.750596,0,0,0
2004/5/2 5:15,0.032199973,0,0,0,4.726956,0,0,0
2004/5/2 5:30,0.032361008,0,0,0,4.750596,0,0,0
2004/5/2 5:45,0.032199973,0,0,0,4.726956,0,0,0
2004/5/2 6:00,0.040572016,0,0.005957003,0,5.955972,0,0.874488,0
2004/5/2 6:15,0.045402016,0,0,0,6.665016,0,0,0
2004/5/2 6:30,0.043791989,0,0,0,6.428664,0,0,0
2004/5/2 6:45,0.032521962,0,0.00966,0,4.774224,0,1.418088,0
2004/5/2 7:00,0.032522044,0,0,0,4.774236,0,0,0
2004/5/2 7:15,0.032682997,0,0,0,4.797864,0,0,0
2004/5/2 7:30,0.032521962,0,0,0,4.774224,0,0,0
2004/5/2 7:45,0.032199973,0,0,0,4.726956,0,0,0
2004/5/2 8:00,0.032199973,0,0,0,4.726956,0,0,0
2004/5/2 8:15,0.03799594,0,0,0,5.577804,0,0,0
2004/5/2 8:30,0.04347,0,0.009176975,0,6.381396,0,1.34718,0
2004/5/2 8:45,0.043148011,0,0.000483025,0,6.334128,0,0.070908,0
2004/5/2 9:00,0.036224959,0,0,0,5.317824,0,0,0
2004/5/2 9:15,0.032039019,0,0,0,4.703328,0,0,0
2004/5/2 9:30,0.032522044,0,0,0,4.774236,0,0,0
2004/5/2 9:45,0.032682997,0,0.144256022,0,4.797864,0,21.176784,0
2004/5/2 10:00,0.033005068,0,0.689884986,0,4.845144,0,101.275116,0
2004/5/2 10:15,0.032682997,0,0.000483025,0,4.797864,0,0.070908,0
2004/5/2 10:30,0.032682997,0,0,0,4.797864,0,0,0
2004/5/2 10:45,0.046529019,0,0.048621989,0,6.83046,0,7.137708,0
2004/5/2 11:00,0.057316022,0,0.014328965,0,8.413992,0,2.103492,0
2004/5/2 11:15,0.032361008,0,0.051681008,0,4.750596,0,7.586772,0
2004/5/2 11:30,0.032361008,0,0,0,4.750596,0,0,0
2004/5/2 11:45,0.032361008,0,0,0,4.750596,0,0,0
2004/5/2 12:00,0.032199973,0,0,0,4.726956,0,0,0
2004/5/2 12:15,0.031877984,0,0.005795967,0,4.679688,0,0.850848,0
2004/5/2 12:30,0.032039019,0,0,0,4.703328,0,0,0
2004/5/2 12:45,0.035420027,0,0.088550027,0,5.19966,0,12.999144,0
2004/5/2 13:00,0.042826022,0,0,0,6.28686,0,0,0
2004/5/2 13:15,0.044758038,0,0,0,6.57048,0,0,0
2004/5/2 13:30,0.039605967,0,0,0,5.814156,0,0,0
2004/5/2 13:45,0.033970954,0,0,0,4.986936,0,0,0
2004/5/2 14:00,0.03381,0,0,0,4.963308,0,0,0
2004/5/2 14:15,0.033166022,0,0,0,4.868772,0,0,0
2004/5/2 14:30,0.032361008,0,0.032682997,0,4.750596,0,4.797864,0
2004/5/2 14:45,0.031877984,0,0,0,4.679688,0,0,0
2004/5/2 15:00,0.031877984,0,0.025277003,0,4.679688,0,3.710664,0
2004/5/2 15:15,0.033166022,0,0,0,4.868772,0,0,0
2004/5/2 15:30,0.037835068,0,0.095794986,0,5.554188,0,14.062704,0
2004/5/2 15:45,0.03799594,0,0.03590297,0,5.577804,0,5.270556,0
2004/5/2 16:00,0.037996022,0,0,0,5.577816,0,0,0
2004/5/2 16:15,0.037996022,0,0.013524033,0,5.577816,0,1.985328,0
2004/5/2 16:30,0.034937003,0,0,0,5.128752,0,0,0
2004/5/2 16:45,0.031234005,0,0,0,4.585152,0,0,0
2004/5/2 17:00,0.031073052,0,0,0,4.561524,0,0,0
2004/5/2 17:15,0.031073052,0,0.005313025,0,4.561524,0,0.779952,0
2004/5/2 17:30,0.031234005,0,0.000483025,0,4.585152,0,0.070908,0
2004/5/2 17:45,0.031234005,0,0,0,4.585152,0,0,0
2004/5/2 18:00,0.031395041,0,0.015778038,0,4.608792,0,2.316216,0
2004/5/2 18:15,0.031395041,0,0,0,4.608792,0,0,0
2004/5/2 18:30,0.03171703,0,0.012074959,0,4.65606,0,1.772604,0
2004/5/2 18:45,0.03171703,0,0,0,4.65606,0,0,0
2004/5/2 19:00,0.031555995,0,0,0,4.63242,0,0,0
2004/5/2 19:15,0.031395041,0,0,0,4.608792,0,0,0
2004/5/2 19:30,0.03381,0,0,0,4.963308,0,0,0
2004/5/2 19:45,0.039605967,0,0,0,5.814156,0,0,0
2004/5/2 20:00,0.040249946,0,0,0,5.908692,0,0,0
2004/5/2 20:15,0.040088992,0,0,0,5.885064,0,0,0
2004/5/2 20:30,0.035903052,0,0.015617003,0,5.270568,0,2.292576,0
2004/5/2 20:45,0.031555995,0,0.006278992,0,4.63242,0,0.921756,0
2004/5/2 21:00,0.031716948,0,0.160517003,0,4.656048,0,23.563896,0
2004/5/2 21:15,0.03171703,0,0.005796049,0,4.65606,0,0.85086,0
2004/5/2 21:30,0.032039019,0,0.453536975,0,4.703328,0,66.579228,0
2004/5/2 21:45,0.032039019,0,0.382697003,0,4.703328,0,56.17992,0
2004/5/2 22:00,0.032038937,0,0.071161962,0,4.703316,0,10.446576,0
2004/5/2 22:15,0.032199973,0,0.153271962,0,4.726956,0,22.500324,0
2004/5/2 22:30,0.034615095,0,0,0,5.081496,0,0,0
2004/5/2 22:45,0.043630954,0,0.017065995,0,6.405024,0,2.505288,0
2004/5/2 23:00,0.04347,0,0.179032071,0,6.381396,0,26.281908,0
2004/5/2 23:15,0.039767003,0,0.063111989,0,5.837796,0,9.26484,0
2004/5/2 23:30,0.032361008,0,0,0,4.750596,0,0,0
2004/5/2 23:45,0.032361008,0,0,0,4.750596,0,0,0
2004/5/3 0:00,0.032522044,0,0,0,4.774236,0,0,0
2004/5/3 0:15,0.032522044,0,0.085491008,0,4.774236,0,12.55008,0
2004/5/3 0:30,0.032522044,0,0.083559074,0,4.774236,0,12.266472,0
2004/5/3 0:45,0.032522044,0,0.185150027,0,4.774236,0,27.180024,0
2004/5/3 1:00,0.040250027,0,0,0,5.908704,0,0,0
2004/5/3 1:15,0.044597003,0,0,0,6.54684,0,0,0
2004/5/3 1:30,0.044918992,0,0,0,6.594108,0,0,0
2004/5/3 1:45,0.033005068,0,0,0,4.845144,0,0,0
2004/5/3 2:00,0.032361008,0,0,0,4.750596,0,0,0
2004/5/3 2:15,0.032521962,0,0,0,4.774224,0,0,0
2004/5/3 2:30,0.032521962,0,0,0,4.774224,0,0,0
2004/5/3 2:45,0.032844033,0,0,0,4.821504,0,0,0
2004/5/3 3:00,0.032682997,0,0,0,4.797864,0,0,0
2004/5/3 3:15,0.042826022,0,0,0,6.28686,0,0,0
2004/5/3 3:30,0.046367984,0,0,0,6.80682,0,0,0
2004/5/3 3:45,0.042182044,0,0,0,6.192324,0,0,0
2004/5/3 4:00,0.032682997,0,0,0,4.797864,0,0,0
2004/5/3 4:15,0.032844033,0,0,0,4.821504,0,0,0
2004/5/3 4:30,0.033004986,0,0.015778038,0,4.845132,0,2.316216,0
2004/5/3 4:45,0.033005068,0,0,0,4.845144,0,0,0
2004/5/3 5:00,0.033004986,0,0,0,4.845132,0,0,0
2004/5/3 5:15,0.044436049,0,0,0,6.523212,0,0,0
2004/5/3 5:30,0.048461035,0,0,0,7.11408,0,0,0
2004/5/3 5:45,0.040088992,0,0,0,5.885064,0,0,0
2004/5/3 6:00,0.033326975,0,0,0,4.8924,0,0,0
2004/5/3 6:15,0.033488011,0,0,0,4.91604,0,0,0
2004/5/3 6:30,0.033166022,0,0,0,4.868772,0,0,0
2004/5/3 6:45,0.033488011,0,0,0,4.91604,0,0,0
2004/5/3 7:00,0.037352044,0,0,0,5.48328,0,0,0
2004/5/3 7:15,0.047495068,0,0,0,6.972276,0,0,0
2004/5/3 7:30,0.047172997,0,0,0,6.924996,0,0,0
2004/5/3 7:45,0.034131989,0,0,0,5.010576,0,0,0
2004/5/3 8:00,0.032844033,0,0,0,4.821504,0,0,0
2004/5/3 8:15,0.032682997,0,0.019963978,0,4.797864,0,2.930712,0
2004/5/3 8:30,0.032522044,0,0,0,4.774236,0,0,0
2004/5/3 8:45,0.032522044,0,0,0,4.774236,0,0,0
2004/5/3 9:00,0.032199973,0,0,0,4.726956,0,0,0
2004/5/3 9:15,0.03654703,0,0.005635014,0,5.365104,0,0.82722,0
2004/5/3 9:30,0.042664986,0,0,0,6.26322,0,0,0
2004/5/3 9:45,0.042181962,0,0,0,6.192312,0,0,0
2004/5/3 10:00,0.039445014,0,0.166634959,0,5.790528,0,24.462012,0
2004/5/3 10:15,0.032039019,0,0.542892098,0,4.703328,0,79.69656,0
2004/5/3 10:30,0.03171703,0,0.154720954,0,4.65606,0,22.713036,0
2004/5/3 10:45,0.031555995,0,0,0,4.63242,0,0,0
2004/5/3 11:00,0.031556076,0,0.005635014,0,4.632432,0,0.82722,0
2004/5/3 11:15,0.031877984,0,0.05313,0,4.679688,0,7.799484,0
2004/5/3 11:30,0.031555995,0,0.069391063,0,4.63242,0,10.186608,0
2004/5/3 11:45,0.03171703,0,0,0,4.65606,0,0,0
2004/5/3 12:00,0.031716948,0,0,0,4.656048,0,0,0
2004/5/3 12:15,0.031556076,0,0,0,4.632432,0,0,0
2004/5/3 12:30,0.031555995,0,0,0,4.63242,0,0,0
2004/5/3 12:45,0.031234005,0,0,0,4.585152,0,0,0
2004/5/3 13:00,0.037030054,0,0.005635014,0,5.436012,0,0.82722,0
2004/5/3 13:15,0.037996022,0,0.011914005,0,5.577816,0,1.748976,0
2004/5/3 13:30,0.037030054,0,0,0,5.436012,0,0,0
2004/5/3 13:45,0.03654703,0,0,0,5.365104,0,0,0
2004/5/3 14:00,0.037351962,0,0,0,5.483268,0,0,0
2004/5/3 14:15,0.033971035,0,0,0,4.986948,0,0,0
2004/5/3 14:30,0.031234005,0,0,0,4.585152,0,0,0
2004/5/3 14:45,0.031234005,0,0,0,4.585152,0,0,0
2004/5/3 15:00,0.03107297,0,0,0,4.561512,0,0,0
2004/5/3 15:15,0.030751063,0,0,0,4.514256,0,0,0
2004/5/3 15:30,0.030912016,0,0,0,4.537884,0,0,0
2004/5/3 15:45,0.031073052,0,0,0,4.561524,0,0,0
2004/5/3 16:00,0.030912016,0,0,0,4.537884,0,0,0
2004/5/3 16:15,0.030912016,0,0.015133978,0,4.537884,0,2.221668,0
2004/5/3 16:30,0.03107297,0,0,0,4.561512,0,0,0
2004/5/3 16:45,0.030912016,0,0,0,4.537884,0,0,0
2004/5/3 17:00,0.03107297,0,0,0,4.561512,0,0,0
2004/5/3 17:15,0.03107297,0,0,0,4.561512,0,0,0
2004/5/3 17:30,0.030750981,0,0.119944986,0,4.514244,0,17.607924,0
2004/5/3 17:45,0.031073052,0,0.046851008,0,4.561524,0,6.877728,0
2004/5/3 18:00,0.030751063,0,0.012879973,0,4.514256,0,1.89078,0
2004/5/3 18:15,0.030751063,0,0.014168011,0,4.514256,0,2.079864,0
2004/5/3 18:30,0.030751063,0,0.02141297,0,4.514256,0,3.143424,0
2004/5/3 18:45,0.030750981,0,0,0,4.514244,0,0,0
2004/5/3 19:00,0.03171703,0,0,0,4.65606,0,0,0
2004/5/3 19:15,0.035259074,0,0.009821035,0,5.176032,0,1.441728,0
2004/5/3 19:30,0.035420027,0,0.036385995,0,5.19966,0,5.341464,0
2004/5/3 19:45,0.035420027,0,0,0,5.19966,0,0,0
2004/5/3 20:00,0.035420027,0,0.14973,0,5.19966,0,21.980364,0
2004/5/3 20:15,0.035258992,0,0.517937003,0,5.17602,0,76.033152,0
2004/5/3 20:30,0.035419946,0,0.282555041,0,5.199648,0,41.47908,0
2004/5/3 20:45,0.033488011,0,0.063917003,0,4.91604,0,9.383016,0
2004/5/3 21:00,0.031073052,0,0.171464959,0,4.561524,0,25.171056,0
2004/5/3 21:15,0.030750981,0,0.027692044,0,4.514244,0,4.065192,0
2004/5/3 21:30,0.030750981,0,0,0,4.514244,0,0,0
2004/5/3 21:45,0.030590027,0,0.026564959,0,4.490616,0,3.899736,0
2004/5/3 22:00,0.030911935,0,0.021090981,0,4.537872,0,3.096156,0
2004/5/3 22:15,0.030912016,0,0,0,4.537884,0,0,0
2004/5/3 22:30,0.03107297,0,0.020930027,0,4.561512,0,3.072528,0
2004/5/3 22:45,0.030912016,0,0,0,4.537884,0,0,0
2004/5/3 23:00,0.031234005,0,0.021090981,0,4.585152,0,3.096156,0
2004/5/3 23:15,0.030912016,0,0.021090981,0,4.537884,0,3.096156,0
2004/5/3 23:30,0.030911935,0,0,0,4.537872,0,0,0
2004/5/3 23:45,0.030911935,0,0.042342997,0,4.537872,0,6.215952,0
2004/5/4 0:00,0.03107297,0,0.021090981,0,4.561512,0,3.096156,0
2004/5/4 0:15,0.031394959,0,0.075991962,0,4.60878,0,11.15562,0
2004/5/4 0:30,0.031394959,0,0.062951035,0,4.60878,0,9.241212,0
2004/5/4 0:45,0.031555995,0,0.021090981,0,4.63242,0,3.096156,0
2004/5/4 1:00,0.03171703,0,0,0,4.65606,0,0,0
2004/5/4 1:15,0.03654703,0,0.020930027,0,5.365104,0,3.072528,0
2004/5/4 1:30,0.036869019,0,0,0,5.412372,0,0,0
2004/5/4 1:45,0.037352044,0,0.025277003,0,5.48328,0,3.710664,0
2004/5/4 2:00,0.036707984,0,0.021252016,0,5.388732,0,3.119796,0
2004/5/4 2:15,0.037996022,0,0,0,5.577816,0,0,0
2004/5/4 2:30,0.035097956,0,0.020930027,0,5.15238,0,3.072528,0
2004/5/4 2:45,0.031395041,0,0,0,4.608792,0,0,0
2004/5/4 3:00,0.031234005,0,0.020930027,0,4.585152,0,3.072528,0
2004/5/4 3:15,0.031234005,0,0.021252016,0,4.585152,0,3.119796,0
2004/5/4 3:30,0.031234005,0,0,0,4.585152,0,0,0
2004/5/4 3:45,0.031234005,0,0,0,4.585152,0,0,0
2004/5/4 4:00,0.030912016,0,0,0,4.537884,0,0,0
2004/5/4 4:15,0.031073052,0,0,0,4.561524,0,0,0
2004/5/4 4:30,0.030750981,0,0,0,4.514244,0,0,0
2004/5/4 4:45,0.030912016,0,0,0,4.537884,0,0,0
2004/5/4 5:00,0.030912016,0,0,0,4.537884,0,0,0
2004/5/4 5:15,0.03107297,0,0,0,4.561512,0,0,0
2004/5/4 5:30,0.030590027,0,0,0,4.490616,0,0,0
2004/5/4 5:45,0.030911935,0,0,0,4.537872,0,0,0
2004/5/4 6:00,0.030750981,0,0,0,4.514244,0,0,0
2004/5/4 6:15,0.03107297,0,0,0,4.561512,0,0,0
2004/5/4 6:30,0.03381,0,0,0,4.963308,0,0,0
2004/5/4 6:45,0.03654703,0,0,0,5.365104,0,0,0
2004/5/4 7:00,0.036385995,0,0,0,5.341464,0,0,0
2004/5/4 7:15,0.036385995,0,0,0,5.341464,0,0,0
2004/5/4 7:30,0.036064005,0,0,0,5.294196,0,0,0
2004/5/4 7:45,0.03590297,0,0,0,5.270556,0,0,0
2004/5/4 8:00,0.030912016,0,0,0,4.537884,0,0,0
2004/5/4 8:15,0.030428992,0,0,0,4.466976,0,0,0
2004/5/4 8:30,0.030589946,0,0,0,4.490604,0,0,0
2004/5/4 8:45,0.030751063,0,0,0,4.514256,0,0,0
2004/5/4 9:00,0.030268038,0,0.005473978,0,4.443348,0,0.80358,0
2004/5/4 9:15,0.030751063,0,0.209944005,0,4.514256,0,30.81978,0
2004/5/4 9:30,0.030750981,0,0,0,4.514244,0,0,0
2004/5/4 9:45,0.030590027,0,0,0,4.490616,0,0,0
2004/5/4 10:00,0.030751063,0,0,0,4.514256,0,0,0
2004/5/4 10:15,0.030590027,0,0,0,4.490616,0,0,0
2004/5/4 10:30,0.030590027,0,0,0,4.490616,0,0,0
2004/5/4 10:45,0.030750981,0,0,0,4.514244,0,0,0
2004/5/4 11:00,0.030589946,0,0,0,4.490604,0,0,0
2004/5/4 11:15,0.030590027,0,0,0,4.490616,0,0,0
2004/5/4 11:30,0.030750981,0,0,0,4.514244,0,0,0
2004/5/4 11:45,0.030590027,0,0,0,4.490616,0,0,0
2004/5/4 12:00,0.030590027,0,0,0,4.490616,0,0,0
2004/5/4 12:15,0.030590027,0,0.005151989,0,4.490616,0,0.756312,0
2004/5/4 12:30,0.030267956,0,0.007727984,0,4.443336,0,1.134468,0
2004/5/4 12:45,0.030268038,0,0,0,4.443348,0,0,0
2004/5/4 13:00,0.030268038,0,0.041054959,0,4.443348,0,6.026868,0
2004/5/4 13:15,0.030107003,0,0,0,4.419708,0,0,0
2004/5/4 13:30,0.030268038,0,0.011592016,0,4.443348,0,1.701708,0
2004/5/4 13:45,0.030429074,0,0,0,4.466988,0,0,0
2004/5/4 14:00,0.030268038,0,0,0,4.443348,0,0,0
2004/5/4 14:15,0.030268038,0,0,0,4.443348,0,0,0
2004/5/4 14:30,0.030428992,0,0,0,4.466976,0,0,0
2004/5/4 14:45,0.030428992,0,0,0,4.466976,0,0,0
2004/5/4 15:00,0.030428992,0,0.313628011,0,4.466976,0,46.040592,0
2004/5/4 15:15,0.030428992,0,0.130088011,0,4.466976,0,19.09692,0
2004/5/4 15:30,0.030429074,0,0.006762016,0,4.466988,0,0.992664,0
2004/5/4 15:45,0.030911935,0,0,0,4.537872,0,0,0
2004/5/4 16:00,0.031073052,0,0,0,4.561524,0,0,0
2004/5/4 16:15,0.031716948,0,0,0,4.656048,0,0,0
2004/5/4 16:30,0.032039019,0,0,0,4.703328,0,0,0
2004/5/4 16:45,0.032361008,0,0,0,4.750596,0,0,0
2004/5/4 17:00,0.031878065,0,0,0,4.6797,0,0,0
2004/5/4 17:15,0.031395041,0,0,0,4.608792,0,0,0
2004/5/4 17:30,0.03171703,0,0,0,4.65606,0,0,0
2004/5/4 17:45,0.032522044,0,0,0,4.774236,0,0,0
2004/5/4 18:00,0.032200054,0,0.258566076,0,4.726968,0,37.9575,0
2004/5/4 18:15,0.033004986,0,0.056994033,0,4.845132,0,8.366724,0
2004/5/4 18:30,0.033326975,0,0,0,4.8924,0,0,0
2004/5/4 18:45,0.03316594,0,0,0,4.86876,0,0,0
2004/5/4 19:00,0.03381,0,0,0,4.963308,0,0,0
2004/5/4 19:15,0.034293025,0,0,0,5.034216,0,0,0
2004/5/4 19:30,0.031234005,0,0,0,4.585152,0,0,0
2004/5/4 19:45,0.030428992,0,0.042342997,0,4.466976,0,6.215952,0
2004/5/4 20:00,0.030750981,0,0,0,4.514244,0,0,0
2004/5/4 20:15,0.030912016,0,0.005957003,0,4.537884,0,0.874488,0
2004/5/4 20:30,0.030428992,0,0,0,4.466976,0,0,0
2004/5/4 20:45,0.030590027,0,0,0,4.490616,0,0,0
2004/5/4 21:00,0.030750981,0,0,0,4.514244,0,0,0
2004/5/4 21:15,0.030589946,0,0.015455967,0,4.490604,0,2.268936,0
2004/5/4 21:30,0.030912016,0,0.132664005,0,4.537884,0,19.475076,0
2004/5/4 21:45,0.03107297,0,0,0,4.561512,0,0,0
2004/5/4 22:00,0.031234005,0,0.371748965,0,4.585152,0,54.572748,0
2004/5/4 22:15,0.03107297,0,0.000321989,0,4.561512,0,0.047268,0
2004/5/4 22:30,0.03107297,0,0,0,4.561512,0,0,0
2004/5/4 22:45,0.031234005,0,0,0,4.585152,0,0,0
2004/5/4 23:00,0.031073052,0,0,0,4.561524,0,0,0
2004/5/4 23:15,0.031234005,0,0,0,4.585152,0,0,0
2004/5/4 23:30,0.031555995,0,0,0,4.63242,0,0,0
2004/5/4 23:45,0.038156975,0,0,0,5.601444,0,0,0
2004/5/5 0:00,0.038156975,0,0,0,5.601444,0,0,0
2004/5/5 0:15,0.037674033,0,0.073577003,0,5.530548,0,10.801104,0
2004/5/5 0:30,0.038156975,0,0,0,5.601444,0,0,0
2004/5/5 0:45,0.033488011,0,0,0,4.91604,0,0,0
2004/5/5 1:00,0.031073052,0,0,0,4.561524,0,0,0
2004/5/5 1:15,0.030912016,0,0,0,4.537884,0,0,0
2004/5/5 1:30,0.030911935,0,0,0,4.537872,0,0,0
2004/5/5 1:45,0.030912016,0,0,0,4.537884,0,0,0
2004/5/5 2:00,0.03107297,0,0,0,4.561512,0,0,0
2004/5/5 2:15,0.030750981,0,0,0,4.514244,0,0,0
2004/5/5 2:30,0.031234005,0,0,0,4.585152,0,0,0
2004/5/5 2:45,0.030912016,0,0,0,4.537884,0,0,0
2004/5/5 3:00,0.03107297,0,0,0,4.561512,0,0,0
2004/5/5 3:15,0.030912016,0,0,0,4.537884,0,0,0
2004/5/5 3:30,0.03107297,0,0,0,4.561512,0,0,0
2004/5/5 3:45,0.030912016,0,0,0,4.537884,0,0,0
2004/5/5 4:00,0.03107297,0,0,0,4.561512,0,0,0
2004/5/5 4:15,0.03654703,0,0,0,5.365104,0,0,0
2004/5/5 4:30,0.037673951,0,0,0,5.530536,0,0,0
2004/5/5 4:45,0.037029973,0,0,0,5.436,0,0,0
2004/5/5 5:00,0.037512997,0,0,0,5.506908,0,0,0
2004/5/5 5:15,0.037191008,0,0.005957003,0,5.45964,0,0.874488,0
2004/5/5 5:30,0.031877984,0,0,0,4.679688,0,0,0
2004/5/5 5:45,0.030912016,0,0,0,4.537884,0,0,0
2004/5/5 6:00,0.031234005,0,0,0,4.585152,0,0,0
2004/5/5 6:15,0.030912016,0,0.015455967,0,4.537884,0,2.268936,0
2004/5/5 6:30,0.030912016,0,0,0,4.537884,0,0,0
2004/5/5 6:45,0.03107297,0,0,0,4.561512,0,0,0
2004/5/5 7:00,0.031073052,0,0,0,4.561524,0,0,0
2004/5/5 7:15,0.03107297,0,0,0,4.561512,0,0,0
2004/5/5 7:30,0.030912016,0,0,0,4.537884,0,0,0
2004/5/5 7:45,0.031234005,0,0.005795967,0,4.585152,0,0.850848,0
2004/5/5 8:00,0.030912016,0,0,0,4.537884,0,0,0
2004/5/5 8:15,0.031233924,0,0.005795967,0,4.58514,0,0.850848,0
2004/5/5 8:30,0.03107297,0,0,0,4.561512,0,0,0
2004/5/5 8:45,0.030912016,0,0,0,4.537884,0,0,0
2004/5/5 9:00,0.036224959,0,0,0,5.317824,0,0,0
2004/5/5 9:15,0.036869019,0,0,0,5.412372,0,0,0
2004/5/5 9:30,0.036707984,0,0.00966,0,5.388732,0,1.418088,0
2004/5/5 9:45,0.036707984,0,0.060857984,0,5.388732,0,8.933952,0
2004/5/5 10:00,0.03654703,0,0.275149046,0,5.365104,0,40.39188,0
2004/5/5 10:15,0.034293025,0,0.000643978,0,5.034216,0,0.094536,0
2004/5/5 10:30,0.031555995,0,0,0,4.63242,0,0,0
2004/5/5 10:45,0.031716948,0,0.000483025,0,4.656048,0,0.070908,0
2004/5/5 11:00,0.031555995,0,0.025598992,0,4.63242,0,3.757932,0
2004/5/5 11:15,0.03171703,0,0,0,4.65606,0,0,0
2004/5/5 11:30,0.03171703,0,0,0,4.65606,0,0,0
2004/5/5 11:45,0.031716948,0,0.007889019,0,4.656048,0,1.158108,0
2004/5/5 12:00,0.031395041,0,0.005313025,0,4.608792,0,0.779952,0
2004/5/5 12:15,0.03171703,0,0.000483025,0,4.65606,0,0.070908,0
2004/5/5 12:30,0.031556076,0,0,0,4.632432,0,0,0
2004/5/5 12:45,0.031234005,0,0,0,4.585152,0,0,0
2004/5/5 13:00,0.031395041,0,0,0,4.608792,0,0,0
2004/5/5 13:15,0.031234005,0,0,0,4.585152,0,0,0
2004/5/5 13:30,0.031234005,0,0,0,4.585152,0,0,0
2004/5/5 13:45,0.031234005,0,0,0,4.585152,0,0,0
2004/5/5 14:00,0.033326975,0,0,0,4.8924,0,0,0
2004/5/5 14:15,0.036868937,0,0,0,5.41236,0,0,0
2004/5/5 14:30,0.036385995,0,0,0,5.341464,0,0,0
2004/5/5 14:45,0.036707984,0,0.009498965,0,5.388732,0,1.394448,0
2004/5/5 15:00,0.037030054,0,0,0,5.436012,0,0,0
2004/5/5 15:15,0.036707984,0,0,0,5.388732,0,0,0
2004/5/5 15:30,0.032522044,0,0,0,4.774236,0,0,0
2004/5/5 15:45,0.031073052,0,0,0,4.561524,0,0,0